Time,TemperatureF,DewpointF,PressureIn,WindDirection,WindDirectionDegrees,WindSpeedMPH,WindSpeedGustMPH,Humidity,HourlyPrecipIn,Conditions,Clouds,dailyrainin,SoftwareType,DateUTC
2013-02-27 13:12:00,34.4,33.1,29.49,NNE,30,2.0,3.0,95,0.03,,OVC003,0.21,VWS V14.01,2013-02-27 18:12:00,
2013-02-27 13:13:00,34.4,33.1,29.49,NE,55,6.0,6.0,95,0.03,,OVC003,0.21,VWS V14.01,2013-02-27 18:13:00,
2013-02-27 13:18:00,34.4,33.1,29.49,NE,49,3.0,3.0,95,0.04,,OVC003,0.22,VWS V14.01,2013-02-27 18:18:00,
2013-02-27 13:20:00,34.4,33.1,29.49,NE,52,3.0,3.0,95,0.04,,OVC003,0.22,VWS V14.01,2013-02-27 18:20:00,
2013-02-27 13:25:00,34.4,33.1,29.49,NNE,27,2.0,2.0,95,0.03,,OVC003,0.22,VWS V14.01,2013-02-27 18:25:00,
2013-02-27 13:30:00,34.4,33.1,29.49,NNE,26,2.0,2.0,95,0.04,,OVC003,0.23,VWS V14.01,2013-02-27 18:30:00,
2013-02-27 13:35:00,34.4,33.1,29.49,East,82,2.0,2.0,95,0.04,,OVC003,0.23,VWS V14.01,2013-02-27 18:35:00,
2013-02-27 13:40:00,34.6,33.3,29.49,East,82,2.0,0.0,95,0.05,,OVC003,0.24,VWS V14.01,2013-02-27 18:40:00,
2013-02-27 13:45:00,34.7,33.4,29.49,East,82,2.0,2.0,95,0.04,,OVC003,0.24,VWS V14.01,2013-02-27 18:45:00,
2013-02-27 13:51:00,34.7,33.4,29.49,East,79,4.0,4.0,95,0.04,,OVC003,0.24,VWS V14.01,2013-02-27 18:51:00,
2013-02-27 13:56:00,34.6,33.3,29.49,East,79,2.0,2.0,95,0.05,,OVC003,0.25,VWS V14.01,2013-02-27 18:56:00,
2013-02-27 14:01:00,34.6,33.3,29.49,North,353,2.0,2.0,95,0.05,,OVC003,0.25,VWS V14.01,2013-02-27 19:01:00,
2013-02-27 14:06:00,34.6,33.3,29.49,ENE,60,4.0,4.0,95,0.04,,OVC003,0.25,VWS V14.01,2013-02-27 19:06:00,
2013-02-27 14:11:00,34.4,33.1,29.49,NNE,17,4.0,4.0,95,0.04,,OVC003,0.25,VWS V14.01,2013-02-27 19:11:00,
2013-02-27 14:16:00,34.4,33.1,29.49,NE,49,2.0,3.0,95,0.05,,OVC003,0.26,VWS V14.01,2013-02-27 19:16:00,
2013-02-27 14:21:00,34.4,33.1,29.49,NNE,33,2.0,4.0,95,0.04,,OVC003,0.26,VWS V14.01,2013-02-27 19:21:00,
2013-02-27 14:26:00,34.4,33.1,29.49,NE,39,2.0,4.0,95,0.04,,OVC003,0.26,VWS V14.01,2013-02-27 19:26:00,
2013-02-27 14:31:00,34.4,33.1,29.49,NNE,21,3.0,5.0,95,0.03,,OVC003,0.26,VWS V14.01,2013-02-27 19:31:00,
2013-02-27 14:36:00,34.4,33.1,29.49,NNE,26,2.0,4.0,95,0.03,,OVC003,0.26,VWS V14.01,2013-02-27 19:36:00,
2013-02-27 14:41:00,34.4,33.1,29.49,NW,317,2.0,2.0,95,0.04,,OVC003,0.27,VWS V14.01,2013-02-27 19:41:00,
2013-02-27 14:46:00,34.4,33.1,29.49,NW,317,2.0,2.0,95,0.03,,OVC003,0.27,VWS V14.01,2013-02-27 19:46:00,
2013-02-27 14:51:00,34.4,33.1,29.49,NE,54,2.0,4.0,95,0.03,,OVC003,0.27,VWS V14.01,2013-02-27 19:51:00,
2013-02-27 14:56:00,34.4,33.1,29.49,NE,54,3.0,3.0,95,0.03,,OVC003,0.27,VWS V14.01,2013-02-27 19:56:00,
2013-02-27 15:01:00,34.4,33.1,29.49,ENE,74,2.0,4.0,95,0.02,,OVC003,0.27,VWS V14.01,2013-02-27 20:01:00,
2013-02-27 15:06:00,34.4,33.1,29.49,ENE,74,3.0,3.0,95,0.03,,OVC003,0.28,VWS V14.01,2013-02-27 20:06:00,
2013-02-27 15:11:00,34.4,33.1,29.49,NE,51,2.0,3.0,95,0.03,,OVC003,0.28,VWS V14.01,2013-02-27 20:11:00,
2013-02-27 15:16:00,34.4,33.1,29.49,NE,47,2.0,2.0,95,0.02,,OVC003,0.28,VWS V14.01,2013-02-27 20:16:00,
2013-02-27 15:21:00,34.4,33.1,29.49,NE,47,4.0,4.0,95,0.02,,OVC003,0.28,VWS V14.01,2013-02-27 20:21:00,
2013-02-27 15:26:00,34.4,33.1,29.49,NNE,18,2.0,3.0,95,0.02,,OVC003,0.28,VWS V14.01,2013-02-27 20:26:00,
2013-02-27 15:31:00,34.4,33.1,29.49,NE,48,3.0,3.0,95,0.02,,OVC003,0.28,VWS V14.01,2013-02-27 20:31:00,
2013-02-27 15:36:00,34.4,33.1,29.49,NE,48,2.0,2.0,95,0.03,,OVC003,0.29,VWS V14.01,2013-02-27 20:36:00,
2013-02-27 15:41:00,34.4,33.1,29.49,NE,48,3.0,3.0,95,0.02,,OVC003,0.29,VWS V14.01,2013-02-27 20:41:00,
2013-02-27 15:46:00,34.4,33.1,29.49,NE,37,2.0,3.0,95,0.02,,OVC003,0.29,VWS V14.01,2013-02-27 20:46:00,
2013-02-27 15:51:00,34.4,33.1,29.50,NNE,14,4.0,4.0,95,0.02,,OVC003,0.29,VWS V14.01,2013-02-27 20:51:00,
2013-02-27 15:56:00,34.4,33.1,29.50,NNE,13,2.0,2.0,95,0.02,,OVC003,0.29,VWS V14.01,2013-02-27 20:56:00,
2013-02-27 16:02:00,34.4,33.1,29.50,ENE,59,2.0,4.0,95,0.02,,OVC003,0.29,VWS V14.01,2013-02-27 21:02:00,
2013-02-27 16:07:00,34.4,33.1,29.50,NNE,12,2.0,2.0,95,0.02,,OVC003,0.30,VWS V14.01,2013-02-27 21:07:00,
2013-02-27 16:12:00,34.4,33.1,29.50,NE,51,3.0,3.0,95,0.02,,OVC003,0.30,VWS V14.01,2013-02-27 21:12:00,
2013-02-27 16:17:00,34.4,33.1,29.50,NE,48,2.0,2.0,95,0.02,,OVC003,0.30,VWS V14.01,2013-02-27 21:17:00,
2013-02-27 16:22:00,34.4,33.1,29.50,NE,49,2.0,2.0,95,0.02,,OVC003,0.30,VWS V14.01,2013-02-27 21:22:00,
2013-02-27 16:27:00,34.4,33.1,29.50,NE,39,2.0,3.0,95,0.02,,OVC003,0.30,VWS V14.01,2013-02-27 21:27:00,
2013-02-27 16:32:00,34.4,33.1,29.50,NE,39,2.0,0.0,95,0.02,,OVC003,0.30,VWS V14.01,2013-02-27 21:32:00,
2013-02-27 16:37:00,34.4,33.1,29.51,NE,39,2.0,0.0,95,0.01,,OVC003,0.30,VWS V14.01,2013-02-27 21:37:00,
2013-02-27 16:42:00,34.4,33.1,29.51,ESE,120,2.0,3.0,95,0.01,,OVC003,0.30,VWS V14.01,2013-02-27 21:42:00,
2013-02-27 16:47:00,34.4,33.1,29.51,ENE,62,3.0,4.0,95,0.02,,OVC003,0.31,VWS V14.01,2013-02-27 21:47:00,
2013-02-27 16:52:00,34.3,33.0,29.51,NE,43,4.0,4.0,95,0.02,,OVC003,0.31,VWS V14.01,2013-02-27 21:52:00,
2013-02-27 16:57:00,34.3,33.0,29.51,NE,43,2.0,2.0,95,0.02,,OVC003,0.31,VWS V14.01,2013-02-27 21:57:00,
2013-02-27 17:02:00,34.3,33.0,29.51,ENE,58,3.0,5.0,95,0.02,,OVC003,0.31,VWS V14.01,2013-02-27 22:02:00,
2013-02-27 17:07:00,34.3,33.0,29.51,ENE,58,2.0,2.0,95,0.02,,OVC003,0.31,VWS V14.01,2013-02-27 22:07:00,
2013-02-27 17:12:00,34.3,33.0,29.51,NE,54,3.0,3.0,95,0.01,,OVC003,0.31,VWS V14.01,2013-02-27 22:12:00,
2013-02-27 17:17:00,34.3,33.0,29.51,NE,53,3.0,3.0,95,0.01,,OVC003,0.31,VWS V14.01,2013-02-27 22:17:00,
2013-02-27 17:22:00,34.3,33.0,29.51,ENE,65,2.0,3.0,95,0.01,,OVC003,0.31,VWS V14.01,2013-02-27 22:22:00,
2013-02-27 17:27:00,34.2,32.9,29.51,ENE,65,3.0,3.0,95,0.01,,OVC003,0.31,VWS V14.01,2013-02-27 22:27:00,
2013-02-27 17:32:00,34.2,32.9,29.51,NE,47,2.0,3.0,95,0.02,,OVC003,0.32,VWS V14.01,2013-02-27 22:32:00,
2013-02-27 17:37:00,34.2,32.9,29.51,NNE,14,2.0,3.0,95,0.02,,OVC003,0.32,VWS V14.01,2013-02-27 22:37:00,
2013-02-27 17:42:00,34.1,32.8,29.51,NNE,14,2.0,2.0,95,0.02,,OVC003,0.32,VWS V14.01,2013-02-27 22:42:00,
2013-02-27 17:47:00,34.1,32.8,29.51,ENE,70,3.0,4.0,95,0.01,,OVC003,0.32,VWS V14.01,2013-02-27 22:47:00,
2013-02-27 17:52:00,34.1,32.8,29.52,ENE,70,2.0,2.0,95,0.01,,OVC003,0.32,VWS V14.01,2013-02-27 22:52:00,
2013-02-27 17:57:00,34.1,32.8,29.52,NE,45,2.0,2.0,95,0.01,,OVC003,0.32,VWS V14.01,2013-02-27 22:57:00,
2013-02-27 18:02:00,34.0,32.7,29.52,NE,45,3.0,3.0,95,0.01,,OVC003,0.32,VWS V14.01,2013-02-27 23:02:00,
2013-02-27 18:07:00,33.9,32.6,29.52,NE,46,4.0,4.0,95,0.01,,OVC003,0.32,VWS V14.01,2013-02-27 23:07:00,
2013-02-27 18:12:00,33.9,32.6,29.52,NE,41,4.0,4.0,95,0.02,,OVC003,0.33,VWS V14.01,2013-02-27 23:12:00,
2013-02-27 18:17:00,33.9,32.6,29.52,NE,41,2.0,2.0,95,0.02,,OVC003,0.33,VWS V14.01,2013-02-27 23:17:00,
2013-02-27 18:22:00,33.9,32.6,29.52,NE,41,2.0,2.0,95,0.02,,OVC003,0.33,VWS V14.01,2013-02-27 23:22:00,
2013-02-27 18:27:00,33.9,32.6,29.52,NE,41,2.0,2.0,95,0.02,,OVC003,0.33,VWS V14.01,2013-02-27 23:27:00,
2013-02-27 18:32:00,33.9,32.6,29.53,NE,45,3.0,3.0,95,0.02,,OVC003,0.33,VWS V14.01,2013-02-27 23:32:00,
2013-02-27 18:37:00,33.9,32.6,29.53,ENE,57,2.0,3.0,95,0.01,,OVC003,0.33,VWS V14.01,2013-02-27 23:37:00,
2013-02-27 18:42:00,33.9,32.6,29.53,ENE,64,3.0,3.0,95,0.01,,OVC003,0.33,VWS V14.01,2013-02-27 23:42:00,
2013-02-27 18:47:00,33.9,32.6,29.53,ENE,64,2.0,2.0,95,0.01,,OVC003,0.33,VWS V14.01,2013-02-27 23:47:00,
2013-02-27 18:53:00,34.0,32.7,29.53,ENE,64,3.0,3.0,95,0.01,,OVC003,0.33,VWS V14.01,2013-02-27 23:53:00,
2013-02-27 18:58:00,34.0,32.7,29.53,ENE,64,2.0,2.0,95,0.01,,OVC003,0.33,VWS V14.01,2013-02-27 23:58:00,
2013-02-27 19:03:00,34.0,32.7,29.53,NW,312,4.0,4.0,95,0.01,,OVC003,0.33,VWS V14.01,2013-02-28 00:03:00,
2013-02-27 19:08:00,34.0,32.7,29.53,NE,54,3.0,4.0,95,0.01,,OVC003,0.33,VWS V14.01,2013-02-28 00:08:00,
2013-02-27 19:13:00,34.1,32.8,29.53,NE,54,2.0,2.0,95,0.01,,OVC003,0.33,VWS V14.01,2013-02-28 00:13:00,
2013-02-27 19:18:00,34.1,32.8,29.53,NE,53,2.0,2.0,95,0.00,,OVC003,0.33,VWS V14.01,2013-02-28 00:18:00,
2013-02-27 19:23:00,34.1,32.8,29.53,NE,54,4.0,4.0,95,0.00,,OVC003,0.33,VWS V14.01,2013-02-28 00:23:00,
2013-02-27 19:28:00,34.1,32.8,29.53,NE,49,2.0,3.0,95,0.00,,OVC003,0.33,VWS V14.01,2013-02-28 00:28:00,
2013-02-27 19:33:00,34.1,32.8,29.54,NE,40,6.0,6.0,95,0.00,,OVC003,0.33,VWS V14.01,2013-02-28 00:33:00,
2013-02-27 19:38:00,34.1,32.8,29.54,NNE,14,4.0,4.0,95,0.00,,OVC003,0.33,VWS V14.01,2013-02-28 00:38:00,
2013-02-27 19:43:00,34.1,32.8,29.54,ENE,58,4.0,4.0,95,0.00,,OVC003,0.33,VWS V14.01,2013-02-28 00:43:00,
2013-02-27 19:48:00,34.1,32.8,29.53,ENE,59,2.0,3.0,95,0.00,,OVC003,0.33,VWS V14.01,2013-02-28 00:48:00,
2013-02-27 19:53:00,34.1,32.8,29.53,North,8,4.0,4.0,95,0.00,,OVC003,0.33,VWS V14.01,2013-02-28 00:53:00,
2013-02-27 19:58:00,34.1,32.8,29.53,NNW,337,2.0,2.0,95,0.00,,OVC003,0.33,VWS V14.01,2013-02-28 00:58:00,
2013-02-27 20:03:00,34.1,32.8,29.53,NNW,337,4.0,4.0,95,0.00,,OVC003,0.33,VWS V14.01,2013-02-28 01:03:00,
2013-02-27 20:08:00,34.1,32.8,29.53,NE,55,3.0,3.0,95,0.00,,OVC003,0.33,VWS V14.01,2013-02-28 01:08:00,
2013-02-27 20:13:00,34.1,32.8,29.53,NE,40,2.0,2.0,95,0.00,,OVC003,0.33,VWS V14.01,2013-02-28 01:13:00,
2013-02-27 20:18:00,34.1,32.8,29.54,NE,41,4.0,4.0,95,0.00,,OVC003,0.33,VWS V14.01,2013-02-28 01:18:00,
2013-02-27 20:23:00,34.1,32.8,29.54,NE,40,2.0,2.0,95,0.00,,OVC003,0.33,VWS V14.01,2013-02-28 01:23:00,
2013-02-27 20:28:00,34.1,32.8,29.54,NE,41,4.0,4.0,95,0.00,,OVC003,0.33,VWS V14.01,2013-02-28 01:28:00,
2013-02-27 20:33:00,34.1,32.8,29.54,NNE,24,2.0,6.0,95,0.00,,OVC003,0.33,VWS V14.01,2013-02-28 01:33:00,
2013-02-27 20:38:00,34.1,32.8,29.54,NNE,24,3.0,3.0,95,0.00,,OVC003,0.33,VWS V14.01,2013-02-28 01:38:00,
2013-02-27 20:43:00,34.1,32.8,29.54,NE,44,5.0,5.0,95,0.00,,OVC003,0.33,VWS V14.01,2013-02-28 01:43:00,
2013-02-27 20:48:00,34.1,32.8,29.54,NE,53,3.0,3.0,95,0.00,,OVC003,0.33,VWS V14.01,2013-02-28 01:48:00,
2013-02-27 20:53:00,34.1,32.8,29.54,North,359,5.0,5.0,95,0.00,,OVC003,0.33,VWS V14.01,2013-02-28 01:53:00,
2013-02-27 20:58:00,34.1,32.8,29.54,NNW,333,4.0,4.0,95,0.00,,OVC003,0.33,VWS V14.01,2013-02-28 01:58:00,
2013-02-27 21:03:00,34.0,32.7,29.54,NNW,333,2.0,2.0,95,0.00,,OVC003,0.33,VWS V14.01,2013-02-28 02:03:00,
2013-02-27 21:08:00,34.0,32.7,29.54,NNW,343,3.0,3.0,95,0.00,,OVC003,0.33,VWS V14.01,2013-02-28 02:08:00,
2013-02-27 21:13:00,34.0,32.7,29.54,NE,44,2.0,0.0,95,0.00,,OVC003,0.33,VWS V14.01,2013-02-28 02:13:00,
2013-02-27 21:18:00,34.0,32.7,29.55,NE,44,2.0,0.0,95,0.00,,OVC003,0.33,VWS V14.01,2013-02-28 02:18:00,
2013-02-27 21:23:00,34.0,32.7,29.55,NNW,343,2.0,0.0,95,0.01,,OVC003,0.34,VWS V14.01,2013-02-28 02:23:00,
2013-02-27 21:28:00,34.0,32.7,29.55,NE,53,2.0,0.0,95,0.01,,OVC003,0.34,VWS V14.01,2013-02-28 02:28:00,
2013-02-27 21:33:00,34.0,32.7,29.55,NE,52,2.0,0.0,95,0.01,,OVC003,0.34,VWS V14.01,2013-02-28 02:33:00,
2013-02-27 21:38:00,34.0,32.7,29.55,NE,55,2.0,0.0,95,0.01,,OVC003,0.34,VWS V14.01,2013-02-28 02:38:00,
2013-02-27 21:43:00,33.9,32.6,29.55,NE,55,2.0,0.0,95,0.01,,OVC003,0.34,VWS V14.01,2013-02-28 02:43:00,
2013-02-27 21:48:00,33.9,32.6,29.55,NE,55,2.0,2.0,95,0.01,,OVC003,0.34,VWS V14.01,2013-02-28 02:48:00,
2013-02-27 21:53:00,33.9,32.6,29.55,NE,49,3.0,3.0,95,0.01,,OVC003,0.34,VWS V14.01,2013-02-28 02:53:00,
2013-02-27 21:58:00,33.9,32.6,29.55,NE,50,2.0,0.0,95,0.01,,OVC003,0.34,VWS V14.01,2013-02-28 02:58:00,
2013-02-27 22:03:00,33.8,32.5,29.54,NE,50,2.0,0.0,95,0.01,,OVC003,0.34,VWS V14.01,2013-02-28 03:03:00,
2013-02-27 22:08:00,33.8,33.5,29.54,NNW,340,2.0,0.0,99,0.01,,OVC003,0.34,VWS V14.01,2013-02-28 03:08:00,
2013-02-27 22:14:00,33.8,32.5,29.54,NNW,340,2.0,0.0,95,0.01,,OVC003,0.34,VWS V14.01,2013-02-28 03:14:00,
2013-02-27 22:19:00,33.6,32.3,29.54,NE,49,2.0,2.0,95,0.01,,OVC003,0.34,VWS V14.01,2013-02-28 03:19:00,
2013-02-27 22:24:00,33.5,32.2,29.54,NE,49,2.0,2.0,95,0.00,,OVC003,0.34,VWS V14.01,2013-02-28 03:24:00,
2013-02-27 22:29:00,33.5,32.2,29.54,NNW,333,2.0,2.0,95,0.00,,OVC003,0.34,VWS V14.01,2013-02-28 03:29:00,
2013-02-27 22:34:00,33.4,32.1,29.55,NNW,333,2.0,2.0,95,0.00,,OVC003,0.34,VWS V14.01,2013-02-28 03:34:00,
2013-02-27 22:39:00,33.4,32.1,29.55,NNW,332,2.0,2.0,95,0.00,,OVC003,0.34,VWS V14.01,2013-02-28 03:39:00,
2013-02-27 22:44:00,33.3,32.0,29.55,NNW,333,2.0,0.0,95,0.00,,OVC003,0.34,VWS V14.01,2013-02-28 03:44:00,
2013-02-27 22:49:00,33.3,32.0,29.55,NNW,333,2.0,0.0,95,0.00,,OVC003,0.34,VWS V14.01,2013-02-28 03:49:00,
2013-02-27 22:54:00,33.3,32.0,29.55,NNW,333,2.0,2.0,95,0.00,,OVC003,0.34,VWS V14.01,2013-02-28 03:54:00,
2013-02-27 22:59:00,33.3,32.0,29.55,North,359,2.0,2.0,95,0.00,,OVC003,0.34,VWS V14.01,2013-02-28 03:59:00,
2013-02-27 23:04:00,33.3,32.0,29.55,NNW,336,4.0,4.0,95,0.00,,OVC003,0.34,VWS V14.01,2013-02-28 04:04:00,
2013-02-27 23:09:00,33.3,32.0,29.55,North,8,2.0,2.0,95,0.00,,OVC003,0.34,VWS V14.01,2013-02-28 04:09:00,
2013-02-27 23:14:00,33.3,32.0,29.55,NNW,341,2.0,0.0,95,0.00,,OVC003,0.34,VWS V14.01,2013-02-28 04:14:00,
2013-02-27 23:19:00,33.3,32.0,29.55,NE,53,3.0,3.0,95,0.00,,OVC003,0.34,VWS V14.01,2013-02-28 04:19:00,
2013-02-27 23:24:00,33.4,32.1,29.55,NE,35,3.0,3.0,95,0.00,,OVC003,0.34,VWS V14.01,2013-02-28 04:24:00,
2013-02-27 23:29:00,33.4,32.1,29.55,NNE,33,4.0,4.0,95,0.00,,OVC003,0.34,VWS V14.01,2013-02-28 04:29:00,
2013-02-27 23:34:00,33.4,32.1,29.55,WSW,258,2.0,2.0,95,0.00,,OVC003,0.34,VWS V14.01,2013-02-28 04:34:00,
2013-02-27 23:39:00,33.4,32.1,29.55,NNW,347,3.0,3.0,95,0.00,,OVC003,0.34,VWS V14.01,2013-02-28 04:39:00,
2013-02-27 23:44:00,33.3,32.0,29.55,NE,36,2.0,2.0,95,0.00,,OVC003,0.34,VWS V14.01,2013-02-28 04:44:00,
2013-02-27 23:49:00,33.3,32.0,29.55,NE,36,2.0,0.0,95,0.00,,OVC003,0.34,VWS V14.01,2013-02-28 04:49:00,
2013-02-27 23:54:00,33.3,32.0,29.55,North,10,2.0,3.0,95,0.00,,OVC003,0.34,VWS V14.01,2013-02-28 04:54:00,
2013-02-27 23:59:00,33.3,32.0,29.55,North,10,2.0,2.0,95,0.00,,OVC003,0.34,VWS V14.01,2013-02-28 04:59:00,